Skip Page Navigation
NASA JPL Caltech
NASA Logo - Jet Propulsion Laboratory + View the NASA Portal
+ Center for Near-Earth Object Studies
JPL Home Earth Solar System Stars & Galaxies Technology
JPL Solar System Dynamics
BODIES ORBITS EPHEMERIDES TOOLS PHYSICAL DATA DISCOVERY FAQ SITE MAP
IMPORTANT: The SSD Announcement email list is now available. Major changes are coming in the near future, including possible hostname and/or URL changes. To be notified of such changes, subscribe to this email list.

Please visit this page for more details.


JPL Small-Body Database Browser
Search: [ help ]  
324922 (2007 VS326)
Classification: Main-belt Asteroid          SPK-ID: 2324922
Ephemeris | Orbit Diagram | Orbital Elements | Mission Design | Physical Parameters | Discovery Circumstances ]

[ show orbit diagram ]
Orbital Elements at Epoch 2458600.5 (2019-Apr-27.0) TDB
Reference: JPL 9 (heliocentric ecliptic J2000)
 Element Value Uncertainty (1-sigma)   Units 
e .134385371822065 4.6971e-08  
a 2.309128765051921 1.52e-08 au
q 1.998815637375393 1.0679e-07 au
i 2.972591632241187 7.1413e-06 deg
node 351.9290856387769 9.0179e-05 deg
peri 119.3023204957821 9.6604e-05 deg
M 58.15833447241888 3.1905e-05 deg
tp 2458393.447673877854
(2018-Oct-01.94767388)
0.0001129 TDB
period 1281.653576914623
3.51
1.2655e-05
3.465e-08
d
yr
n .2808871339996903 2.7734e-09 deg/d
Q 2.619441892728449 1.7243e-08 au
  Orbit Determination Parameters
   # obs. used (total)      150  
   data-arc span      8233 days (22.54 yr)  
   first obs. used      1996-09-19  
   last obs. used      2019-04-05  
   planetary ephem.      DE431  
   SB-pert. ephem.      SB431-N16  
   condition code      0  
   norm. resid. RMS      .54311  
   source      ORB  
   producer      Otto Matic  
   solution date      2019-Jul-14 13:30:01  

Additional Information
 Earth MOID = 1.01764 au 
 Jupiter MOID = 2.47571 au 
 T_jup = 3.572 
[ show covariance matrix ]

Ephemeris | Orbit Diagram | Orbital Elements | Mission Design | Physical Parameters | Discovery Circumstances ]

Physical Parameter Table
Parameter Symbol Value Units Sigma Reference Notes
absolute magnitude H 17.9   n/a MPO418668  

324922 (2007 VS326)          Discovered 2007-Nov-04 by Spacewatch at Kitt Peak
Reference: 20120406/Numbers.arcLast Updated: 2012-04-09
Ephemeris | Orbit Diagram | Orbital Elements | Mission Design | Physical Parameters | Discovery Circumstances ]
ABOUT SSD CREDITS/AWARDS PRIVACY/COPYRIGHT GLOSSARY LINKS
FirstGov
(server date/time)  
NASA Home Page
Site Manager:   Ryan S. Park
Webmaster  Alan B. Chamberlin